User: anonymous
Location: Toronto
(43.6672°N, 79.4170°W)
Time: 06:15:36
(UTC-04:00)
Language:

ISS - Orbit

View from above orbital plane
View from above orbital plane
View from above satellite
View from above satellite

Ground track
Ground track

The orbit data is extracted from the following two-line orbital elements,

1 25544U 98067A   14111.13372524  .00034403  00000-0  60521-3 0  1257
2 25544 051.6494 022.3343 0003671 307.3581 201.3192 15.50134274882471
Epoch (UTC): 21 April 2014 03:12:33
Eccentricity: 0.0003671
inclination: 51.6494°
perigee height: 414 km
apogee height: 419 km
right ascension of ascending node: 22.3343°
argument of perigee: 307.3581°
revolutions per day: 15.50134274
mean anomaly at epoch: 201.3192°
orbit number at epoch: 88247

The dashed part of the orbit path shows where the satellite is in the earth's shadow,  

DLR